N6GIW Weather Reports


Display with metric or nautical units.
time (UTC)temp
F
wind
direction
speed
MPH
gust
MPH
rain 1hr
in
rain 24hr
in
rain mn
in
humidity
%
barometer
mb
20260902223003 89 254 5.0 12.0 0.00 0.00 0.00 10 1022.0
20260902222503 89 227 7.0 14.0 0.00 0.00 0.00 11 1022.0
20260902221503 89 226 9.0 15.0 0.00 0.00 0.00 10 1022.1
20260902221003 89 227 9.0 16.0 0.00 0.00 0.00 10 1022.1
20260902220504 89 245 13.0 20.0 0.00 0.00 0.00 10 1022.3
20260902215503 89 239 8.0 13.0 0.00 0.00 0.00 10 1022.4
20260902215004 89 230 13.0 18.0 0.00 0.00 0.00 9 1022.4
20260902214503 89 218 11.0 21.0 0.00 0.00 0.00 9 1022.3
20260902214003 89 246 12.0 18.0 0.00 0.00 0.00 8 1022.4
20260902213504 89 232 13.0 20.0 0.00 0.00 0.00 6 1022.3
20260902212503 89 222 15.0 22.0 0.00 0.00 0.00 6 1022.3
20260902211503 89 234 14.0 23.0 0.00 0.00 0.00 6 1022.4
20260902211004 89 230 12.0 20.0 0.00 0.00 0.00 6 1022.3
20260902210504 89 209 15.0 25.0 0.00 0.00 0.00 6 1022.5
20260902205503 89 212 13.0 24.0 0.00 0.00 0.00 6 1022.6
20260902205004 88 232 14.0 23.0 0.00 0.00 0.00 6 1022.7
20260902204503 88 244 15.0 23.0 0.00 0.00 0.00 6 1022.8
20260902204003 89 209 13.0 21.0 0.00 0.00 0.00 6 1022.9
20260902203503 89 231 13.0 25.0 0.00 0.00 0.00 6 1022.8
20260902203004 89 223 12.0 20.0 0.00 0.00 0.00 6 1022.9
20260902202503 89 227 12.0 20.0 0.00 0.00 0.00 6 1022.9
20260902201503 88 236 13.0 21.0 0.00 0.00 0.00 6 1023.0
20260902201003 89 217 14.0 23.0 0.00 0.00 0.00 6 1022.9
20260902200503 89 229 14.0 22.0 0.00 0.00 0.00 5 1023.0
20260902200003 88 232 13.0 22.0 0.00 0.00 0.00 6 1023.1
20260902195004 89 236 12.0 20.0 0.00 0.00 0.00 6 1023.0
20260902193503 88 247 11.0 20.0 0.00 0.00 0.00 6 1023.3
20260902193010 88 238 10.0 17.0 0.00 0.00 0.00 6 1023.3
20260902192503 88 240 12.0 18.0 0.00 0.00 0.00 6 1023.2
20260902192005 89 218 12.0 20.0 0.00 0.00 0.00 6 1023.3
20260902191506 88 241 11.0 18.0 0.00 0.00 0.00 6 1023.5
20260902190503 88 221 12.0 20.0 0.00 0.00 0.00 6 1023.5
20260902190005 88 237 12.0 18.0 0.00 0.00 0.00 6 1023.7
20260902185005 87 219 10.0 20.0 0.00 0.00 0.00 6 1023.8
20260902183505 86 159 5.0 10.0 0.00 0.00 0.00 8 1023.9
20260902183003 85 146 1.0 8.0 0.00 0.00 0.00 11 1023.9
20260902182520 85 160 2.0 12.0 0.00 0.00 0.00 10 1023.9
20260902182019 84 135 5.0 10.0 0.00 0.00 0.00 11 1024.1
20260902181504 83 111 1.0 3.0 0.00 0.00 0.00 13 1024.0
20260902181005 83 122 1.0 8.0 0.00 0.00 0.00 13 1024.1
20260902180503 82 99 1.0 6.0 0.00 0.00 0.00 13 1024.2
20260902174503 81 40 0.0 5.0 0.00 0.00 0.00 14 1024.2
20260902173003 79 30 1.0 5.0 0.00 0.00 0.00 15 1024.4
20260902164503 78 25 3.0 8.0 0.00 0.00 0.00 16 1024.2
20260902163504 77 21 2.0 9.0 0.00 0.00 0.00 17 1024.1
20260902160004 75 36 4.0 7.0 0.00 0.00 0.00 17 1023.9
20260902154503 75 20 3.0 7.0 0.00 0.00 0.00 18 1023.9
20260902154005 75 44 2.0 5.0 0.00 0.00 0.00 18 1024.0
20260902153503 75 35 1.0 3.0 0.00 0.00 0.00 18 1023.9
20260902150004 73 22 1.0 3.0 0.00 0.00 0.00 18 1023.7
20260902145004 72 342 0.0 2.0 0.00 0.00 0.00 19 1023.6
20260902144503 71 342 0.0 0.0 0.00 0.00 0.00 19 1023.6
20260902144004 70 342 0.0 0.0 0.00 0.00 0.00 19 1023.5
20260902143504 70 342 0.0 0.0 0.00 0.00 0.00 20 1023.5
20260902143003 69 342 0.0 0.0 0.00 0.00 0.00 20 1023.6
20260902142503 68 342 0.0 0.0 0.00 0.00 0.00 20 1023.5
20260902141529 67 341 0.0 2.0 0.00 0.00 0.00 20 1023.5
20260902141004 66 331 0.0 3.0 0.00 0.00 0.00 20 1023.3
20260902134004 66 271 2.0 3.0 0.00 0.00 0.00 21 1023.0
20260902133503 66 261 1.0 3.0 0.00 0.00 0.00 21 1022.9
20260902132503 65 267 2.0 7.0 0.00 0.00 0.00 23 1022.8
20260902132004 62 263 1.0 6.0 0.00 0.00 0.00 24 1022.8
20260902131503 62 218 0.0 3.0 0.00 0.00 0.00 24 1022.9
20260902131004 63 211 1.0 3.0 0.00 0.00 0.00 24 1022.9
20260902130004 62 230 1.0 3.0 0.00 0.00 0.00 24 1022.9
20260902125503 63 205 0.0 3.0 0.00 0.00 0.00 24 1022.9
20260902124504 64 223 1.0 3.0 0.00 0.00 0.00 24 1022.9
20260902123004 64 256 2.0 5.0 0.00 0.00 0.00 24 1022.9
20260902122503 64 240 1.0 5.0 0.00 0.00 0.00 24 1023.0
20260902122004 64 240 1.0 3.0 0.00 0.00 0.00 25 1023.0
20260902121503 64 242 2.0 5.0 0.00 0.00 0.00 25 1023.0
20260902121004 64 231 3.0 6.0 0.00 0.00 0.00 25 1022.9
20260902120503 64 233 3.0 6.0 0.00 0.00 0.00 25 1022.9
20260902120004 64 231 2.0 7.0 0.00 0.00 0.00 26 1023.0
20260902115503 64 229 3.0 6.0 0.00 0.00 0.00 26 1022.9
20260902115004 64 226 4.0 6.0 0.00 0.00 0.00 26 1022.9
20260902114504 64 235 4.0 8.0 0.00 0.00 0.00 26 1022.9
20260902113503 63 219 2.0 3.0 0.00 0.00 0.00 28 1022.9
20260902112503 63 228 2.0 6.0 0.00 0.00 0.00 27 1022.7
20260902112004 62 225 4.0 6.0 0.00 0.00 0.00 27 1022.6
20260902111503 63 236 2.0 6.0 0.00 0.00 0.00 27 1022.6
20260902111004 62 227 2.0 5.0 0.00 0.00 0.00 27 1022.7
20260902110503 62 228 3.0 7.0 0.00 0.00 0.00 28 1022.7
20260902110005 62 229 2.0 5.0 0.00 0.00 0.00 28 1022.7
20260902105504 62 246 1.0 3.0 0.00 0.00 0.00 28 1022.6
20260902104003 62 229 1.0 3.0 0.00 0.00 0.00 28 1022.6
20260902103510 62 248 0.0 2.0 0.00 0.00 0.00 28 1022.6
20260902103003 62 246 0.0 1.0 0.00 0.00 0.00 29 1022.8
20260902102003 63 240 2.0 3.0 0.00 0.00 0.00 28 1022.7
20260902101504 63 250 2.0 5.0 0.00 0.00 0.00 28 1022.7
20260902101003 64 243 1.0 3.0 0.00 0.00 0.00 29 1022.8
20260902100504 63 238 2.0 5.0 0.00 0.00 0.00 28 1022.7
20260902095504 63 234 2.0 3.0 0.00 0.00 0.00 29 1022.8
20260902095004 63 211 2.0 6.0 0.00 0.00 0.00 29 1022.9
20260902094503 63 256 1.0 3.0 0.00 0.00 0.00 29 1022.8
20260902094003 64 242 2.0 3.0 0.00 0.00 0.00 29 1022.9
20260902093503 64 251 3.0 6.0 0.00 0.00 0.00 30 1022.8
20260902093003 64 230 1.0 3.0 0.00 0.00 0.00 30 1022.9
20260902092503 64 236 0.0 3.0 0.00 0.00 0.00 30 1023.0
20260902091503 63 245 2.0 3.0 0.00 0.00 0.00 30 1022.9
20260902090004 64 245 2.0 3.0 0.00 0.00 0.00 29 1022.9
20260902085503 64 253 3.0 6.0 0.00 0.00 0.00 29 1022.9
20260902085004 65 263 3.0 6.0 0.00 0.00 0.00 30 1023.0
20260902084503 65 272 3.0 5.0 0.00 0.00 0.00 29 1023.0
20260902084004 66 264 2.0 5.0 0.00 0.00 0.00 29 1023.0
20260902083503 66 245 3.0 6.0 0.00 0.00 0.00 29 1023.0
20260902083004 66 232 3.0 8.0 0.00 0.00 0.00 29 1023.0
20260902082504 66 234 3.0 7.0 0.00 0.00 0.00 30 1022.9
20260902082003 67 239 2.0 6.0 0.00 0.00 0.00 30 1022.9
20260902081003 67 216 4.0 7.0 0.00 0.00 0.00 29 1022.8
20260902080503 67 228 5.0 9.0 0.00 0.00 0.00 30 1022.8
20260902080004 65 222 3.0 7.0 0.00 0.00 0.00 32 1022.8
20260902075504 64 220 0.0 2.0 0.00 0.00 0.00 30 1022.8
20260902075003 64 206 2.0 5.0 0.00 0.00 0.00 30 1022.9
20260902074504 64 203 3.0 5.0 0.00 0.00 0.00 31 1022.8
20260902074003 64 211 1.0 3.0 0.00 0.00 0.00 32 1022.8
20260902073503 65 214 1.0 3.0 0.00 0.00 0.00 32 1022.8
20260902073004 65 211 2.0 3.0 0.00 0.00 0.00 32 1022.7
20260902072503 66 266 0.0 1.0 0.00 0.00 0.00 31 1022.7
20260902071504 66 247 1.0 3.0 0.00 0.00 0.00 32 1022.7
20260902071003 67 234 1.0 5.0 0.00 0.00 0.00 31 1022.7
20260902070503 67 233 3.0 5.0 0.00 0.00 0.00 32 1022.7
20260902070004 67 234 2.0 5.0 0.00 0.00 0.00 32 1022.6
20260902065503 68 241 1.0 5.0 0.00 0.00 0.00 31 1022.7
20260902065004 68 230 5.0 8.0 0.00 0.00 0.00 31 1022.7
20260902064504 68 234 4.0 6.0 0.00 0.00 0.00 31 1022.7
20260902064003 68 238 4.0 7.0 0.00 0.00 0.00 31 1022.7
20260902063504 68 244 2.0 3.0 0.00 0.00 0.00 31 1022.6
20260902063003 68 247 2.0 5.0 0.00 0.00 0.00 30 1022.7
20260902062004 69 235 4.0 8.0 0.00 0.00 0.00 31 1022.7
20260902061003 69 225 3.0 5.0 0.00 0.00 0.00 31 1022.7
20260902055503 70 233 4.0 8.0 0.00 0.00 0.00 33 1022.5
20260902055005 70 225 2.0 5.0 0.00 0.00 0.00 32 1022.6
20260902054503 70 236 3.0 6.0 0.00 0.00 0.00 32 1022.5
20260902054003 71 228 3.0 7.0 0.00 0.00 0.00 31 1022.6
20260902053504 71 229 3.0 7.0 0.00 0.00 0.00 31 1022.6
20260902053003 71 235 5.0 9.0 0.00 0.00 0.00 31 1022.8
20260902051503 71 220 3.0 6.0 0.00 0.00 0.00 31 1023.0
20260902051004 72 229 3.0 6.0 0.00 0.00 0.00 30 1023.0
20260902050007 72 233 5.0 8.0 0.00 0.00 0.00 30 1022.9
20260902045504 72 223 4.0 7.0 0.00 0.00 0.00 30 1022.9
20260902045004 73 234 4.0 8.0 0.00 0.00 0.00 31 1022.9
20260902044503 73 236 5.0 10.0 0.00 0.00 0.00 30 1022.8
20260902044004 73 236 2.0 7.0 0.00 0.00 0.00 30 1022.7
20260902043004 73 239 3.0 8.0 0.00 0.00 0.00 30 1022.6
20260902042503 74 224 5.0 8.0 0.00 0.00 0.00 30 1022.3
20260902042004 74 222 6.0 10.0 0.00 0.00 0.00 29 1022.4
20260902041504 74 223 6.0 9.0 0.00 0.00 0.00 29 1022.2
20260902041003 74 195 8.0 12.0 0.00 0.00 0.00 29 1022.3
20260902040004 75 237 6.0 14.0 0.00 0.00 0.00 28 1022.2
20260902035503 75 237 5.0 9.0 0.00 0.00 0.00 28 1022.1
20260902034503 75 248 5.0 9.0 0.00 0.00 0.00 28 1022.1
20260902034003 75 216 6.0 13.0 0.00 0.00 0.00 29 1022.0
20260902033504 75 237 6.0 12.0 0.00 0.00 0.00 29 1022.0
20260902032004 75 234 8.0 14.0 0.00 0.00 0.00 29 1021.6
20260902031003 76 233 9.0 14.0 0.00 0.00 0.00 28 1021.4
20260902030504 76 240 9.0 14.0 0.00 0.00 0.00 28 1021.4
20260902030004 76 244 9.0 16.0 0.00 0.00 0.00 28 1021.4
20260902025504 76 230 7.0 12.0 0.00 0.00 0.00 28 1021.4
20260902025003 76 242 5.0 12.0 0.00 0.00 0.00 28 1021.4
20260902024003 77 232 9.0 14.0 0.00 0.00 0.00 28 1021.3
20260902023503 77 237 6.0 12.0 0.00 0.00 0.00 28 1021.3
20260902023004 77 251 9.0 13.0 0.00 0.00 0.00 29 1021.3
20260902022503 77 236 8.0 16.0 0.00 0.00 0.00 29 1021.0
20260902022003 77 231 7.0 15.0 0.00 0.00 0.00 29 1021.0
20260902021004 78 202 10.0 20.0 0.00 0.00 0.00 28 1020.8
20260902020504 78 205 12.0 20.0 0.00 0.00 0.00 28 1020.7
20260902020003 79 192 13.0 23.0 0.00 0.00 0.00 28 1020.6
20260902015503 79 192 16.0 24.0 0.00 0.00 0.00 27 1020.7
20260902015003 80 196 15.0 22.0 0.00 0.00 0.00 27 1020.8
20260902014003 81 189 17.0 26.0 0.00 0.00 0.00 27 1020.8
20260902013504 81 180 18.0 26.0 0.00 0.00 0.00 27 1020.9
20260902013004 82 181 16.0 23.0 0.00 0.00 0.00 26 1021.0
20260902012004 83 191 14.0 21.0 0.00 0.00 0.00 21 1021.1
20260902011503 83 191 15.0 22.0 0.00 0.00 0.00 22 1021.2
20260902010004 83 197 14.0 20.0 0.00 0.00 0.00 21 1021.5
20260902005503 84 198 14.0 20.0 0.00 0.00 0.00 21 1021.5
20260902004504 84 191 14.0 20.0 0.00 0.00 0.00 19 1021.6
20260902004004 85 202 14.0 21.0 0.00 0.00 0.00 19 1021.6
20260902003504 85 186 11.0 21.0 0.00 0.00 0.00 19 1021.7
20260902003003 86 198 13.0 20.0 0.00 0.00 0.00 19 1021.6
20260902002503 86 208 14.0 21.0 0.00 0.00 0.00 18 1021.6
20260902002004 86 215 14.0 22.0 0.00 0.00 0.00 17 1021.6
20260902001504 87 209 16.0 22.0 0.00 0.00 0.00 17 1021.6
20260902000504 87 195 10.0 18.0 0.00 0.00 0.00 17 1021.7
20260902000003 87 217 13.0 21.0 0.00 0.00 0.00 17 1021.8
20260901235504 87 218 13.0 20.0 0.00 0.00 0.00 17 1021.7
20260901235003 87 210 14.0 21.0 0.00 0.00 0.00 17 1021.7
20260901233503 89 205 13.0 20.0 0.00 0.00 0.00 15 1021.7
20260901233004 89 205 14.0 22.0 0.00 0.00 0.00 15 1021.5
20260901232503 89 191 14.0 21.0 0.00 0.00 0.00 13 1021.7
20260901232004 89 206 13.0 24.0 0.00 0.00 0.00 14 1021.7
20260901231503 88 191 17.0 24.0 0.00 0.00 0.00 14 1021.8
20260901231004 87 197 17.0 26.0 0.00 0.00 0.00 14 1021.7
20260901230504 88 183 20.0 31.0 0.00 0.00 0.00 14 1021.7
20260901230003 88 189 19.0 26.0 0.00 0.00 0.00 12 1021.7
20260901225504 89 190 17.0 29.0 0.00 0.00 0.00 11 1021.7
20260901225004 88 193 14.0 29.0 0.00 0.00 0.00 12 1021.8